Showing default

CONTECSAT-1, 59117

Orbit data source: Space-Track

CONTECSAT-1, 59117 is a payload satellite owned by CONTEC (KR) in SSO that was launched on Mon, 04 Mar 2024 UTC via an FALCON 9 launch vehicle from the Air Force Western Test Range (AFWTR). Payload-class satellites include a variety of spacecraft equipped with specific instruments for various scientific and technological missions. These include communications satellites like Starlink; space stations such as the ISS; scientific satellites like the Hubble; Earth observation satellites from companies like Planet Labs, Umbra, and HawkEye 360; GPS; miniature CubeSats for education and research; and military/defense satellites.

Loading next visibility...
Identifier
59117, 2024-043V
Orbit
SSO
Country
Flag of KRKR / SKOR
Related business
Manufacturer
CONTEC
Mission
Operational Commercial Imaging
Bus & Motor
CUBESAT 16U, Unknown motor
Mass
~20 kg wet, ~20 kg dry
Launch date (UTC)
2024-03-04 (2 years ago)
Launch vehicle
FALCON 9
Launch site
Air Force Western Test Range (AFWTR)
Object type
Payload
Rocket body
Debris
Shape & HBR
Box, 0.2 m
Radar Cross Section
0.080 m², Medium (>0.1 m² and < 1m²)

Expand to show TLE details & history
Last TLE update: 1 day ago

TLE from 1 day ago
0 CONTECSAT-1
1 59117U 24043V   26235.92049844  .00003467  00000-0  96560-4 0  9994
2 59117  97.5726  18.9396 0009374   4.7598 355.3734 15.37492093137658
Epoch: 2026-08-23T22:05Z
TLE epoch observation values (Epoch: 2026-08-23T22:05:31.065Z)
Latitude
0.00004°
Longitude
75.35053°
Altitude
450.253 km
Speed
7.646 km/s
True Right ascension
01h 15m 45s
True Declination
0° 00' 00"
Sunlit
Object was in full shadow at epoch
Visualization orbit readout
Latitude
Unknown
Longitude
Unknown
Altitude
Unknown
Speed
Unknown
Apparent Right ascension
Unknown
Apparent Declination
Unknown
Sunlit
N/A
Visualization observer readout
Local Sidereal Time
17:30:44
Azimuth
Unknown
Elevation
Unknown
Doppler factor
Unknown
Orbital elements
Apogee altitude
456.879 km
Perigee altitude
444.077 km
Semi-major axis
6,828.615 km
Eccentricity
0.00094
Inclination
97.5726°
RAAN
18.9396°
Arg. of periapsis
4.7598°
True anomaly
355.36473°
Mean anomaly
355.3734°
Eccentric anomaly
355.36906°
Mean motion
3.84631 °/min
Orbital period
93.6 mins
BSTAR
0.00009656
Loading maneuver chart data...
Computing Atmospheric mass density...
Loading historical data...
Loading historical data...
Loading historical data...
Loading historical data...
Loading historical data...
Loading historical data...
Loading historical data...

Documentation

Showing up to 5 results
|